DW8433 Weather Reports


Display with metric or nautical units.
time (UTC)temp
F
wind
direction
speed
MPH
gust
MPH
rain 1hr
in
rain 24hr
in
rain mn
in
humidity
%
barometer
mb
20260503055007 45 269 0.0 0.0 0.00 0.00 0.00 81 1014.7
20260503054006 45 269 0.0 0.0 0.00 0.00 0.00 81 1014.6
20260503053006 46 269 0.0 0.0 0.00 0.00 0.00 77 1014.5
20260503045006 48 269 0.0 2.0 0.00 0.00 0.00 74 1014.4
20260503041006 51 269 0.0 1.0 0.00 0.00 0.00 69 1014.0
20260503040005 52 269 1.0 2.0 0.00 0.00 0.00 69 1013.7
20260503035006 53 269 1.0 2.0 0.00 0.00 0.00 64 1013.6
20260503034006 54 269 1.0 3.0 0.00 0.00 0.00 64 1013.4
20260503032006 56 269 1.0 3.0 0.00 0.00 0.00 62 1013.0
20260503030004 58 269 0.0 2.0 0.00 0.00 0.00 58 1012.8
20260503024006 60 269 0.0 3.0 0.00 0.00 0.00 56 1012.7
20260503022006 62 269 2.0 3.0 0.00 0.00 0.00 51 1012.6
20260503021006 64 269 2.0 3.0 0.00 0.00 0.00 49 1012.6
20260503014006 72 286 1.0 8.0 0.00 0.00 0.00 37 1012.6
20260503011006 73 337 4.0 10.0 0.00 0.00 0.00 28 1012.7
20260503010005 74 331 3.0 12.0 0.00 0.00 0.00 25 1012.7
20260503005006 74 342 8.0 12.0 0.00 0.00 0.00 25 1012.7
20260503000005 76 333 7.0 12.0 0.00 0.00 0.00 24 1012.7
20260502235006 76 281 2.0 12.0 0.00 0.00 0.00 26 1012.7
20260502234006 75 332 6.0 12.0 0.00 0.00 0.00 29 1012.7
20260502233006 76 0 6.0 12.0 0.00 0.00 0.00 25 1012.9
20260502225006 75 333 6.0 12.0 0.00 0.00 0.00 26 1013.4
20260502224005 75 344 4.0 14.0 0.00 0.00 0.00 25 1013.5
20260502222006 76 338 4.0 13.0 0.00 0.00 0.00 27 1013.8
20260502220004 76 354 10.0 15.0 0.00 0.00 0.00 26 1014.1
20260502213006 75 47 1.0 5.0 0.00 0.00 0.00 27 1014.4
20260502211006 75 323 3.0 12.0 0.00 0.00 0.00 25 1014.5
20260502205006 75 217 2.0 9.0 0.00 0.00 0.00 28 1014.7
20260502204006 74 316 7.0 12.0 0.00 0.00 0.00 25 1014.7
20260502203006 74 331 5.0 9.0 0.00 0.00 0.00 27 1014.7
20260502201006 74 201 4.0 9.0 0.00 0.00 0.00 27 1014.8
20260502193005 73 351 2.0 8.0 0.00 0.00 0.00 28 1015.1
20260502192005 73 280 4.0 8.0 0.00 0.00 0.00 30 1015.3
20260502191006 73 327 3.0 6.0 0.00 0.00 0.00 29 1015.3
20260502190004 72 279 2.0 10.0 0.00 0.00 0.00 27 1015.4
20260502184006 72 17 2.0 8.0 0.00 0.00 0.00 36 1015.6
20260502181005 70 36 3.0 7.0 0.00 0.00 0.00 40 1015.9
20260502164007 59 14 1.0 3.0 0.00 0.00 0.00 63 1016.7
20260502163007 57 344 1.0 3.0 0.00 0.00 0.00 64 1016.7
20260502162006 56 23 2.0 3.0 0.00 0.00 0.00 66 1016.8
20260502161007 54 28 2.0 8.0 0.00 0.00 0.00 70 1017.0
20260502151006 46 250 0.0 0.0 0.00 0.00 0.00 89 1017.4
20260502121006 34 250 0.0 0.0 0.00 0.00 0.00 93 1017.2
20260502114007 35 250 0.0 0.0 0.00 0.00 0.00 93 1017.1
20260502113007 35 250 0.0 0.0 0.00 0.00 0.00 93 1017.1
20260502111006 35 250 0.0 0.0 0.00 0.00 0.00 93 1017.2
20260502110005 35 250 0.0 0.0 0.00 0.00 0.00 93 1017.2
20260502105006 35 250 0.0 0.0 0.00 0.00 0.00 92 1017.2
20260502103006 35 250 0.0 0.0 0.00 0.00 0.00 92 1017.4
20260502071006 40 250 0.0 0.0 0.00 0.00 0.00 88 1017.3
20260502070005 41 250 0.0 1.0 0.00 0.00 0.00 87 1017.2
20260502065007 41 250 1.0 3.0 0.00 0.00 0.00 86 1017.1
20260502064006 42 250 0.0 1.0 0.00 0.00 0.00 86 1017.2